Weather History for KW99 - November, 2012

Change the Weather History Date:

Tuesday, November 27, 2012

  Actual Average (KEKN) Record (KEKN)
Temperature  
Mean Temperature 40 °F 38 °F  
Max Temperature 43 °F 48 °F 77 °F (1990)
Min Temperature 36 °F 28 °F 2 °F (1974)
Degree Days  
Heating Degree Days 26 27  
Month to date heating degree days 612  
Since 1 July heating degree days 1203  
Cooling Degree Days 0 0  
Month to date cooling degree days 0  
Year to date cooling degree days 475  
Moisture  
Dew Point 35 °F    
Average Humidity 81    
Maximum Humidity 91    
Minimum Humidity 66    
Precipitation  
Precipitation 0.17 in 0.12 in 0.93 in (1993)
Month to date precipitation 3.02  
Year to date precipitation 42.31  
Snow  
Snow 0.00 in - - ()
Month to date snowfall  
Since 1 September snowfall  
Snow Depth -    
Sea Level Pressure  
Sea Level Pressure 30.22 in    
Wind  
Wind Speed 0 mph (NNW)    
Max Wind Speed 6 mph    
Max Gust Speed -    
Visibility 8 miles    
Events Rain    
T = Trace of Precipitation, MM = Missing Value Source: NWS Daily Summary

Daily Weather History Graph

Daily Weather History Graph

Search for Another Location

Airport or City:

Trip Planner

Search our weather history database for the weather conditions in past years. The results will help you decide how hot, cold, wet, or windy it might be!

Date:

Astronomy

Nov. 27, 2012 Rise Set
Actual Time 7:12 AM EST 4:55 PM EST
Civil Twilight 6:43 AM EST 5:24 PM EST
Nautical Twilight 6:10 AM EST 5:57 PM EST
Astronomical Twilight 5:38 AM EST 6:29 PM EST
Moon 4:25 PM EST (11/27) 6:16 AM EST (11/27)
Length of Visible Light 10h 41m
Length of Day
9h 42m
Waxing Gibbous, 99% of the Moon is Illuminated
Nov 27
Waxing Gibbous
Nov 28
Full
Dec 6
Last Quarter
Dec 13
New
Dec 20
First Quarter

Hourly Weather History & Observations

Time (EST) Temp. Windchill Dew Point Humidity Pressure Visibility Wind Dir Wind Speed Gust Speed Precip Events Conditions
12:15 AM 41.9 °F - 32.4 °F 69% 30.17 in 10.0 mi Calm Calm - N/A   Overcast
12:35 AM 41.9 °F - 32.9 °F 70% 30.17 in 10.0 mi Calm Calm - N/A   Overcast
12:55 AM 43.2 °F - 33.6 °F 69% 30.17 in 10.0 mi Calm Calm - N/A   Overcast
1:15 AM 43.5 °F - 34.0 °F 69% 30.17 in 10.0 mi Calm Calm - N/A Rain Light Rain
1:35 AM 43.2 °F - 33.8 °F 70% 30.17 in 7.0 mi Calm Calm - N/A Rain Light Rain
1:55 AM 42.8 °F - 36.0 °F 77% 30.17 in 7.0 mi Calm Calm - 0.01 in Rain Light Rain
2:15 AM 41.9 °F - 37.8 °F 85% 30.18 in 4.0 mi Calm Calm - 0.02 in Rain Rain
2:35 AM 41.4 °F - 37.6 °F 86% 30.17 in 5.0 mi Calm Calm - 0.03 in Rain Light Rain
2:55 AM 41.2 °F - 37.9 °F 88% 30.17 in 4.0 mi Calm Calm - 0.05 in Rain Rain
3:15 AM 41.2 °F - 38.3 °F 89% 30.19 in 4.0 mi Calm Calm - 0.01 in Rain Light Rain
3:35 AM 41.2 °F - 38.3 °F 89% 30.19 in 3.0 mi Calm Calm - 0.04 in Rain Rain
3:55 AM 41.2 °F - 38.5 °F 90% 30.19 in 4.0 mi Calm Calm - 0.06 in Rain Light Rain
4:15 AM 40.8 °F - 38.3 °F 91% 30.19 in 3.0 mi Calm Calm - 0.02 in Rain Rain
4:35 AM 40.8 °F - 38.5 °F 91% 30.19 in 5.0 mi Calm Calm - 0.03 in Rain Light Rain
4:55 AM 40.6 °F - 37.6 °F 89% 30.19 in 10.0 mi Calm Calm - 0.03 in Rain Rain
5:15 AM 40.6 °F - 37.0 °F 87% 30.19 in 7.0 mi Calm Calm - N/A   Drizzle
5:35 AM 40.1 °F - 36.5 °F 87% 30.18 in 7.0 mi Calm Calm - N/A Rain Light Rain
5:55 AM 39.6 °F - 35.8 °F 86% 30.18 in 10.0 mi Calm Calm - N/A   Light Drizzle
6:15 AM 39.2 °F - 35.8 °F 88% 30.19 in 7.0 mi Calm Calm - N/A   Light Drizzle
6:35 AM 39.2 °F - 35.6 °F 87% 30.19 in 10.0 mi Calm Calm - 0.01 in   Overcast
7:15 AM 38.5 °F - 35.2 °F 88% 30.18 in 7.0 mi Calm Calm - N/A   Overcast
7:35 AM 38.5 °F - 35.2 °F 88% 30.21 in 7.0 mi Calm Calm - N/A   Overcast
7:55 AM 38.5 °F - 35.4 °F 89% 30.21 in 7.0 mi Calm Calm - N/A   Overcast
8:15 AM 38.5 °F - 35.2 °F 88% 30.22 in 4.0 mi Calm Calm - N/A   Overcast
8:35 AM 38.5 °F - 35.4 °F 89% 30.23 in 4.0 mi Calm Calm - N/A   Overcast
8:55 AM 37.9 °F 35.5 °F 35.1 °F 89% 30.24 in 2.5 mi North 3.5 mph - N/A   Overcast
9:15 AM 37.9 °F - 35.1 °F 89% 30.24 in 2.5 mi Calm Calm - N/A   Overcast
9:35 AM 37.4 °F - 34.5 °F 89% 30.24 in 3.0 mi Calm Calm - N/A   Overcast
10:15 AM 36.9 °F - 33.6 °F 88% 30.26 in 7.0 mi Calm Calm - N/A   Overcast
10:35 AM 36.9 °F - 33.6 °F 88% 30.26 in 5.0 mi Calm Calm - 0.01 in   Overcast
10:55 AM 37.4 °F - 34.0 °F 87% 30.25 in 5.0 mi Calm Calm - 0.01 in Rain Light Rain
11:15 AM 37.9 °F - 34.3 °F 87% 30.26 in 7.0 mi Calm Calm - N/A   Light Drizzle
11:35 AM 38.1 °F - 34.2 °F 86% 30.25 in 7.0 mi Calm Calm - N/A   Overcast
11:55 AM 38.8 °F - 34.7 °F 85% 30.24 in 7.0 mi Calm Calm - N/A   Light Drizzle
12:15 PM 39.7 °F - 35.6 °F 85% 30.24 in 7.0 mi Calm Calm - N/A   Light Drizzle
12:35 PM 40.3 °F - 35.4 °F 83% 30.23 in 7.0 mi Calm Calm - N/A Rain Light Rain
12:55 PM 40.3 °F - 36.1 °F 85% 30.23 in 5.0 mi Calm Calm - N/A   Light Drizzle
1:15 PM 40.3 °F - 36.0 °F 85% 30.23 in 7.0 mi Calm Calm - N/A   Overcast
1:35 PM 41.0 °F - 36.7 °F 85% 30.23 in 7.0 mi Calm Calm - N/A   Overcast
1:55 PM 41.0 °F - 36.3 °F 83% 30.22 in 7.0 mi Calm Calm - N/A   Overcast
2:15 PM 41.5 °F - 36.0 °F 81% 30.22 in 7.0 mi Calm Calm - N/A   Overcast
2:35 PM 41.0 °F - 35.2 °F 80% 30.21 in 10.0 mi Calm Calm - N/A   Overcast
2:55 PM 40.8 °F - 35.1 °F 80% 30.20 in 10.0 mi Calm Calm - N/A   Overcast
3:15 PM 40.8 °F - 34.9 °F 79% 30.20 in 10.0 mi Calm Calm - N/A   Overcast
3:35 PM 40.8 °F - 34.5 °F 78% 30.20 in 10.0 mi Calm Calm - N/A   Overcast
3:55 PM 40.8 °F - 34.9 °F 79% 30.21 in 10.0 mi Calm Calm - N/A   Overcast
4:15 PM 40.6 °F - 35.2 °F 81% 30.21 in 7.0 mi Calm Calm - N/A   Overcast
4:35 PM 40.6 °F - 35.6 °F 82% 30.21 in 7.0 mi Calm Calm - N/A   Overcast
4:55 PM 40.8 °F - 36.0 °F 83% 30.22 in 7.0 mi Calm Calm - N/A   Overcast
5:15 PM 41.2 °F - 36.0 °F 82% 30.22 in 10.0 mi Calm Calm - N/A   Overcast
5:35 PM 41.5 °F - 37.0 °F 84% 30.22 in 7.0 mi Calm Calm - N/A   Overcast
5:55 PM 41.4 °F - 36.9 °F 84% 30.23 in 7.0 mi Calm Calm - N/A   Overcast
6:15 PM 41.4 °F - 37.4 °F 86% 30.24 in 5.0 mi Calm Calm - N/A   Overcast
6:55 PM 41.7 °F - 33.1 °F 71% 30.26 in 10.0 mi Calm Calm - N/A   Overcast
7:15 PM 41.4 °F - 32.2 °F 70% 30.26 in 10.0 mi Calm Calm - N/A   Overcast
7:35 PM 41.2 °F - 32.2 °F 70% 30.26 in 10.0 mi Calm Calm - N/A   Overcast
7:55 PM 41.2 °F - 32.2 °F 70% 30.27 in 10.0 mi Calm Calm - N/A   Overcast
8:15 PM 40.8 °F - 32.2 °F 71% 30.27 in 10.0 mi Calm Calm - N/A   Overcast
8:35 PM 39.9 °F - 31.3 °F 71% 30.27 in 10.0 mi Calm Calm - N/A   Overcast
8:55 PM 39.4 °F - 30.6 °F 71% 30.27 in 10.0 mi Calm Calm - N/A   Overcast
9:15 PM 38.7 °F - 30.2 °F 72% 30.27 in 10.0 mi Calm Calm - N/A   Overcast
9:35 PM 38.7 °F - 30.2 °F 72% 30.27 in 10.0 mi Calm Calm - N/A   Overcast
9:55 PM 38.7 °F - 29.1 °F 69% 30.27 in 10.0 mi Calm Calm - N/A   Overcast
10:15 PM 38.7 °F - 28.4 °F 67% 30.28 in 10.0 mi Calm Calm - N/A   Overcast
10:35 PM 39.2 °F - 28.6 °F 66% 30.27 in 10.0 mi Calm Calm - N/A   Overcast
10:55 PM 40.6 °F 36.7 °F 30.2 °F 66% 30.27 in 10.0 mi WNW 5.8 mph - N/A   Overcast
11:15 PM 39.7 °F - 31.5 °F 72% 30.27 in 10.0 mi Calm Calm - N/A   Overcast
11:55 PM 40.1 °F - 30.2 °F 68% 30.26 in 10.0 mi Calm Calm - N/A   Overcast